,,,PA_Meas_PMT16A,,PR_Meas_QMR101_102,,RH_Meas_QMH101,,SR_Meas_QMS101,,TA_Meas_QMH101,,GenWind,,GenWind,
date,time,status,PA,status,PR,status,RH,status,SR,status,TA,status,DirAvg,status,SpdAvg,
2010-06-15, 00:00:04,VALID,1010.7,VALID,0,VALID,101.499,VALID,0.105969,VALID,25.4072,VALID,43,VALID,0,
2010-06-15, 00:01:04,VALID,1010.69,VALID,0,VALID,101.506,VALID,0.105969,VALID,25.4072,VALID,43,VALID,0.146094,
2010-06-15, 00:02:04,VALID,1010.66,VALID,0,VALID,101.545,VALID,0.105969,VALID,25.4072,VALID,43,VALID,0.021875,
2010-06-15, 00:03:04,VALID,1010.68,VALID,0,VALID,101.552,VALID,0.105969,VALID,25.4072,VALID,43,VALID,0.26875,
2010-06-15, 00:04:04,VALID,1010.69,VALID,0,VALID,101.506,VALID,0,VALID,25.4072,VALID,43,VALID,0.366406,
2010-06-15, 00:05:04,VALID,1010.69,VALID,0,VALID,101.484,VALID,0.105969,VALID,25.3877,VALID,43,VALID,0.353516,
2010-06-15, 00:06:04,VALID,1010.68,VALID,0,VALID,101.476,VALID,0.105969,VALID,25.3683,VALID,43,VALID,0.357422,
2010-06-15, 00:07:04,VALID,1010.7,VALID,0,VALID,101.468,VALID,0,VALID,25.3488,VALID,43,VALID,0.326953,
2010-06-15, 00:08:04,VALID,1010.73,VALID,0,VALID,101.461,VALID,0.105969,VALID,25.3293,VALID,43,VALID,0.223047,
2010-06-15, 00:09:04,VALID,1010.71,VALID,0,VALID,101.522,VALID,0.105969,VALID,25.3293,VALID,43,VALID,0,
2010-06-15, 00:10:04,VALID,1010.79,VALID,0,VALID,101.56,VALID,0,VALID,25.3098,VALID,43,VALID,0.364062,
2010-06-15, 00:11:04,VALID,1010.78,VALID,0,VALID,101.56,VALID,0.105969,VALID,25.2903,VALID,43,VALID,0.391797,
2010-06-15, 00:12:04,VALID,1010.83,VALID,0,VALID,101.575,VALID,0.105969,VALID,25.2708,VALID,43,VALID,0.561719,
2010-06-15, 00:13:04,VALID,1010.83,VALID,0,VALID,101.651,VALID,0.105969,VALID,25.2513,VALID,26,VALID,0.691797,
2010-06-15, 00:14:04,VALID,1010.82,VALID,0,VALID,101.712,VALID,0.105969,VALID,25.2318,VALID,14,VALID,0.609766,
2010-06-15, 00:15:04,VALID,1010.88,VALID,0,VALID,101.689,VALID,0,VALID,25.2318,VALID,6,VALID,0.426172,
2010-06-15, 00:16:04,VALID,1010.86,VALID,0,VALID,101.705,VALID,0.105969,VALID,25.2318,VALID,6,VALID,0.253125,
2010-06-15, 00:17:04,VALID,1010.86,VALID,0,VALID,101.735,VALID,0.105969,VALID,25.2318,VALID,6,VALID,0.179297,
2010-06-15, 00:18:04,VALID,1010.85,VALID,0,VALID,101.75,VALID,0,VALID,25.2337,VALID,6,VALID,0,
2010-06-15, 00:19:04,VALID,1010.89,VALID,0,VALID,101.819,VALID,0,VALID,25.2532,VALID,6,VALID,0,
2010-06-15, 00:20:04,VALID,1010.86,VALID,0,VALID,101.811,VALID,0,VALID,25.2337,VALID,6,VALID,0,
2010-06-15, 00:21:04,VALID,1010.83,VALID,0,VALID,101.743,VALID,0,VALID,25.2337,VALID,10,VALID,0.345313,
2010-06-15, 00:22:04,VALID,1010.8,VALID,0,VALID,101.712,VALID,0,VALID,25.2356,VALID,109,VALID,0.610547,
2010-06-15, 00:23:04,VALID,1010.8,VALID,0,VALID,101.621,VALID,0,VALID,25.2337,VALID,109,VALID,0.6,
2010-06-15, 00:24:04,VALID,1010.79,VALID,0,VALID,101.567,VALID,0,VALID,25.2356,VALID,109,VALID,0.516016,
2010-06-15, 00:25:04,VALID,1010.77,VALID,0,VALID,101.499,VALID,0,VALID,25.2746,VALID,109,VALID,0.142969,
2010-06-15, 00:26:04,VALID,1010.74,VALID,0,VALID,101.484,VALID,0,VALID,25.2746,VALID,109,VALID,0.185937,
2010-06-15, 00:27:04,VALID,1010.73,VALID,0,VALID,101.552,VALID,0,VALID,25.2922,VALID,5,VALID,0.407031,
2010-06-15, 00:28:04,VALID,1010.73,VALID,0,VALID,101.56,VALID,0,VALID,25.2922,VALID,357,VALID,0.419531,
2010-06-15, 00:29:04,VALID,1010.71,VALID,0,VALID,101.529,VALID,0,VALID,25.2727,VALID,357,VALID,0.298047,
2010-06-15, 00:30:04,VALID,1010.7,VALID,0,VALID,101.423,VALID,0,VALID,25.2532,VALID,357,VALID,0.2,
2010-06-15, 00:31:04,VALID,1010.66,VALID,0,VALID,101.346,VALID,0,VALID,25.2532,VALID,357,VALID,0.142969,
2010-06-15, 00:32:04,VALID,1010.63,VALID,0,VALID,101.255,VALID,0,VALID,25.2746,VALID,357,VALID,0.253516,
2010-06-15, 00:33:04,VALID,1010.64,VALID,0,VALID,101.27,VALID,0.105969,VALID,25.2513,VALID,3,VALID,0.487109,
2010-06-15, 00:34:04,VALID,1010.6,VALID,0,VALID,101.255,VALID,0,VALID,25.2123,VALID,50,VALID,0.701563,
2010-06-15, 00:35:04,VALID,1010.59,VALID,0,VALID,101.224,VALID,0.105969,VALID,25.2123,VALID,50,VALID,0.477734,
2010-06-15, 00:36:04,VALID,1010.62,VALID,0,VALID,101.224,VALID,0.105969,VALID,25.2123,VALID,50,VALID,0.441797,
2010-06-15, 00:37:04,VALID,1010.58,VALID,0,VALID,101.27,VALID,0,VALID,25.2123,VALID,50,VALID,0.05625,
2010-06-15, 00:38:04,VALID,1010.58,VALID,0,VALID,101.323,VALID,0,VALID,25.1928,VALID,50,VALID,0,
2010-06-15, 00:39:04,VALID,1010.59,VALID,0,VALID,101.308,VALID,0.105969,VALID,25.2123,VALID,50,VALID,0,
2010-06-15, 00:40:04,VALID,1010.57,VALID,0,VALID,101.301,VALID,0.105969,VALID,25.1928,VALID,50,VALID,0,
2010-06-15, 00:41:04,VALID,1010.55,VALID,0,VALID,101.278,VALID,0.105969,VALID,25.1928,VALID,50,VALID,0,
2010-06-15, 00:42:04,VALID,1010.53,VALID,0,VALID,101.24,VALID,0,VALID,25.2123,VALID,50,VALID,0,
2010-06-15, 00:43:04,VALID,1010.5,VALID,0,VALID,101.201,VALID,0,VALID,25.2123,VALID,50,VALID,0,
2010-06-15, 00:44:04,VALID,1010.49,VALID,0,VALID,101.217,VALID,0.105969,VALID,25.2318,VALID,50,VALID,0.2,
2010-06-15, 00:45:04,VALID,1010.49,VALID,0,VALID,101.285,VALID,0.105969,VALID,25.2532,VALID,50,VALID,0.280078,
2010-06-15, 00:46:04,VALID,1010.47,VALID,0,VALID,101.354,VALID,0.105969,VALID,25.2318,VALID,50,VALID,0.317578,
2010-06-15, 00:47:04,VALID,1010.46,VALID,0,VALID,101.331,VALID,0,VALID,25.2123,VALID,50,VALID,0.284375,
2010-06-15, 00:48:04,VALID,1010.44,VALID,0,VALID,101.278,VALID,0,VALID,25.1947,VALID,50,VALID,0.558594,
2010-06-15, 00:49:04,VALID,1010.43,VALID,0,VALID,101.308,VALID,0,VALID,25.1752,VALID,50,VALID,0.598437,
2010-06-15, 00:50:04,VALID,1010.39,VALID,0,VALID,101.369,VALID,0,VALID,25.1966,VALID,53,VALID,0.608594,
2010-06-15, 00:51:04,VALID,1010.41,VALID,0,VALID,101.377,VALID,0,VALID,25.1557,VALID,55,VALID,0.216406,
2010-06-15, 00:52:04,VALID,1010.37,VALID,0,VALID,101.423,VALID,0,VALID,25.1362,VALID,54,VALID,0.255078,
2010-06-15, 00:53:04,VALID,1010.37,VALID,0,VALID,101.438,VALID,0,VALID,25.1557,VALID,54,VALID,0.262891,
2010-06-15, 00:54:04,VALID,1010.3,VALID,0,VALID,101.499,VALID,0,VALID,25.1362,VALID,54,VALID,0.075,
2010-06-15, 00:55:04,VALID,1010.31,VALID,0,VALID,101.537,VALID,0,VALID,25.1557,VALID,2,VALID,0.271094,
2010-06-15, 00:56:04,VALID,1010.28,VALID,0,VALID,101.43,VALID,0,VALID,25.1167,VALID,350,VALID,0.0929687,
2010-06-15, 00:57:04,VALID,1010.29,VALID,0,VALID,101.316,VALID,0,VALID,25.0973,VALID,350,VALID,0.186328,
2010-06-15, 00:58:04,VALID,1010.27,VALID,0,VALID,101.255,VALID,0,VALID,25.0973,VALID,350,VALID,0,
2010-06-15, 00:59:04,VALID,1010.28,VALID,0,VALID,101.178,VALID,0,VALID,25.1167,VALID,347,VALID,0.268359,
2010-06-15, 01:00:04,VALID,1010.28,VALID,0,VALID,101.087,VALID,0,VALID,25.1167,VALID,347,VALID,0.0101562,
2010-06-15, 01:01:04,VALID,1010.31,VALID,0,VALID,100.942,VALID,0,VALID,25.1167,VALID,299,VALID,0.250391,
2010-06-15, 01:02:04,VALID,1010.32,VALID,0,VALID,100.797,VALID,0,VALID,25.1362,VALID,248,VALID,0.292969,
2010-06-15, 01:03:04,VALID,1010.31,VALID,0,VALID,100.622,VALID,0,VALID,25.1576,VALID,248,VALID,0,
2010-06-15, 01:04:04,VALID,1010.31,VALID,0,VALID,100.454,VALID,0,VALID,25.1557,VALID,248,VALID,0,
2010-06-15, 01:05:04,VALID,1010.31,VALID,0,VALID,100.347,VALID,0,VALID,25.1557,VALID,248,VALID,0,
2010-06-15, 01:06:05,VALID,1010.32,VALID,0,VALID,100.591,VALID,0,VALID,25.1966,VALID,248,VALID,0.367969,
2010-06-15, 01:07:05,VALID,1010.31,VALID,0,VALID,100.851,VALID,0,VALID,25.1947,VALID,248,VALID,0.363281,
2010-06-15, 01:08:05,VALID,1010.3,VALID,0,VALID,100.889,VALID,0,VALID,25.1557,VALID,248,VALID,0.450781,
2010-06-15, 01:09:05,VALID,1010.28,VALID,0,VALID,100.896,VALID,0,VALID,25.1362,VALID,25,VALID,0.548828,
2010-06-15, 01:10:05,VALID,1010.25,VALID,0,VALID,100.889,VALID,0,VALID,25.1187,VALID,25,VALID,0.428906,
2010-06-15, 01:11:05,VALID,1010.28,VALID,0,VALID,100.973,VALID,0,VALID,25.0778,VALID,50,VALID,0.537891,
2010-06-15, 01:12:05,VALID,1010.24,VALID,0,VALID,101.041,VALID,0,VALID,25.0583,VALID,50,VALID,0.529688,
2010-06-15, 01:13:05,VALID,1010.21,VALID,0,VALID,101.072,VALID,0,VALID,25.0388,VALID,61,VALID,0.483203,
2010-06-15, 01:14:05,VALID,1010.22,VALID,0,VALID,101.102,VALID,0,VALID,25.0388,VALID,61,VALID,0.236328,
2010-06-15, 01:15:05,VALID,1010.19,VALID,0,VALID,101.163,VALID,0,VALID,25.0602,VALID,61,VALID,0.0441406,
2010-06-15, 01:16:05,VALID,1010.18,VALID,0,VALID,101.209,VALID,0,VALID,25.0602,VALID,61,VALID,0,
2010-06-15, 01:17:05,VALID,1010.15,VALID,0,VALID,101.201,VALID,0,VALID,25.0193,VALID,61,VALID,0.218359,
2010-06-15, 01:18:05,VALID,1010.15,VALID,0,VALID,101.171,VALID,0,VALID,24.9998,VALID,61,VALID,0.0820313,
2010-06-15, 01:19:05,VALID,1010.11,VALID,0,VALID,101.133,VALID,0,VALID,25.0193,VALID,61,VALID,0,
2010-06-15, 01:20:05,VALID,1010.12,VALID,0,VALID,101.117,VALID,0,VALID,24.9998,VALID,61,VALID,0,
2010-06-15, 01:21:05,VALID,1010.09,VALID,0,VALID,101.262,VALID,0,VALID,25.0193,VALID,61,VALID,0,
2010-06-15, 01:22:05,VALID,1010.07,VALID,0,VALID,101.339,VALID,0,VALID,25.0212,VALID,61,VALID,0,
2010-06-15, 01:23:05,VALID,1010.07,VALID,0,VALID,101.445,VALID,0,VALID,25.0193,VALID,61,VALID,0,
2010-06-15, 01:24:05,VALID,1010.06,VALID,0,VALID,101.316,VALID,0,VALID,24.9998,VALID,61,VALID,0,
2010-06-15, 01:25:05,VALID,1010.03,VALID,0,VALID,101.186,VALID,0,VALID,25.0017,VALID,61,VALID,0,
2010-06-15, 01:26:05,VALID,1010.05,VALID,0,VALID,101.163,VALID,0,VALID,24.9803,VALID,61,VALID,0,
2010-06-15, 01:27:05,VALID,1010.03,VALID,0,VALID,101.133,VALID,0,VALID,24.9822,VALID,61,VALID,0,
2010-06-15, 01:28:05,VALID,1010.01,VALID,0,VALID,101.026,VALID,0,VALID,24.9803,VALID,61,VALID,0,
2010-06-15, 01:29:05,VALID,1010.02,VALID,0,VALID,101.011,VALID,0,VALID,24.9803,VALID,61,VALID,0,
2010-06-15, 01:30:05,VALID,1009.98,VALID,0,VALID,100.957,VALID,0,VALID,25.0212,VALID,61,VALID,0,
2010-06-15, 01:31:05,VALID,1010.01,VALID,0,VALID,100.896,VALID,0,VALID,24.9998,VALID,61,VALID,0,
2010-06-15, 01:32:05,VALID,1010.01,VALID,0,VALID,101.079,VALID,0,VALID,24.9998,VALID,61,VALID,0,
2010-06-15, 01:33:05,VALID,1010,VALID,0,VALID,101.255,VALID,0,VALID,24.9998,VALID,61,VALID,0,
2010-06-15, 01:34:05,VALID,1010.01,VALID,0,VALID,101.339,VALID,0,VALID,25.0017,VALID,61,VALID,0,
2010-06-15, 01:35:05,VALID,1010,VALID,0,VALID,101.339,VALID,0,VALID,24.9822,VALID,61,VALID,0,
2010-06-15, 01:36:05,VALID,1010.01,VALID,0,VALID,101.438,VALID,0,VALID,24.9413,VALID,61,VALID,0,
2010-06-15, 01:37:05,VALID,1009.99,VALID,0,VALID,101.491,VALID,0,VALID,24.9413,VALID,61,VALID,0.194531,
2010-06-15, 01:38:05,VALID,1009.99,VALID,0,VALID,101.506,VALID,0,VALID,24.9432,VALID,61,VALID,0,
2010-06-15, 01:39:05,VALID,1009.99,VALID,0,VALID,101.552,VALID,0,VALID,24.9237,VALID,61,VALID,0,
2010-06-15, 01:40:05,VALID,1009.99,VALID,0,VALID,101.567,VALID,0,VALID,24.8828,VALID,61,VALID,0,
2010-06-15, 01:41:05,VALID,1009.98,VALID,0,VALID,101.56,VALID,0,VALID,24.8828,VALID,61,VALID,0,
2010-06-15, 01:42:05,VALID,1009.96,VALID,0,VALID,101.583,VALID,0,VALID,24.8828,VALID,61,VALID,0,
2010-06-15, 01:43:05,VALID,1009.97,VALID,0,VALID,101.598,VALID,0,VALID,24.9042,VALID,61,VALID,0,
2010-06-15, 01:44:05,VALID,1009.96,VALID,0,VALID,101.598,VALID,0,VALID,24.9432,VALID,61,VALID,0,
2010-06-15, 01:45:05,VALID,1009.97,VALID,0,VALID,101.689,VALID,0,VALID,24.9413,VALID,61,VALID,0,
2010-06-15, 01:46:05,VALID,1009.96,VALID,0,VALID,101.689,VALID,0,VALID,24.9822,VALID,61,VALID,0,
2010-06-15, 01:47:05,VALID,1009.97,VALID,0,VALID,101.644,VALID,0,VALID,24.9608,VALID,61,VALID,0,
2010-06-15, 01:48:05,VALID,1009.98,VALID,0,VALID,101.59,VALID,0,VALID,24.9608,VALID,61,VALID,0,
2010-06-15, 01:49:05,VALID,1009.96,VALID,0,VALID,101.628,VALID,0,VALID,24.9822,VALID,61,VALID,0,
2010-06-15, 01:50:05,VALID,1009.98,VALID,0,VALID,101.689,VALID,0,VALID,24.9803,VALID,61,VALID,0,
2010-06-15, 01:51:05,VALID,1009.98,VALID,0,VALID,101.697,VALID,0,VALID,24.9822,VALID,61,VALID,0,
2010-06-15, 01:52:05,VALID,1009.97,VALID,0,VALID,101.659,VALID,0,VALID,24.9627,VALID,61,VALID,0,
2010-06-15, 01:53:05,VALID,1009.98,VALID,0,VALID,101.621,VALID,0,VALID,24.9218,VALID,61,VALID,0,
2010-06-15, 01:54:05,VALID,1009.97,VALID,0,VALID,101.606,VALID,0,VALID,24.9218,VALID,61,VALID,0,
2010-06-15, 01:55:05,VALID,1009.97,VALID,0,VALID,101.613,VALID,0,VALID,24.9023,VALID,61,VALID,0,
2010-06-15, 01:56:05,VALID,1009.98,VALID,0,VALID,101.621,VALID,0,VALID,24.9042,VALID,61,VALID,0,
2010-06-15, 01:57:05,VALID,1009.94,VALID,0,VALID,101.659,VALID,0,VALID,24.9023,VALID,61,VALID,0,
2010-06-15, 01:58:05,VALID,1009.95,VALID,0,VALID,101.773,VALID,0,VALID,24.9023,VALID,61,VALID,0,
2010-06-15, 01:59:05,VALID,1009.94,VALID,0,VALID,101.827,VALID,0,VALID,24.8828,VALID,61,VALID,0,
2010-06-15, 02:00:05,VALID,1009.93,VALID,0,VALID,101.88,VALID,0,VALID,24.9023,VALID,61,VALID,0,
2010-06-15, 02:01:05,VALID,1009.95,VALID,0,VALID,101.865,VALID,0,VALID,24.8828,VALID,61,VALID,0,
2010-06-15, 02:02:05,VALID,1009.95,VALID,0,VALID,101.85,VALID,0,VALID,24.8828,VALID,61,VALID,0,
2010-06-15, 02:03:05,VALID,1009.94,VALID,0,VALID,101.842,VALID,0,VALID,24.9042,VALID,61,VALID,0,
2010-06-15, 02:04:05,VALID,1009.95,VALID,0,VALID,101.85,VALID,0,VALID,24.8847,VALID,61,VALID,0,
2010-06-15, 02:05:05,VALID,1009.96,VALID,0,VALID,101.773,VALID,0,VALID,24.8633,VALID,61,VALID,0.542188,
2010-06-15, 02:06:05,VALID,1009.97,VALID,0,VALID,101.781,VALID,0,VALID,24.8652,VALID,61,VALID,0.55,
2010-06-15, 02:07:05,VALID,1009.99,VALID,0,VALID,101.781,VALID,0,VALID,24.8244,VALID,61,VALID,0.557813,
2010-06-15, 02:08:05,VALID,1010,VALID,0,VALID,101.796,VALID,0,VALID,24.8049,VALID,61,VALID,0.499609,
2010-06-15, 02:09:05,VALID,1010.01,VALID,0,VALID,101.827,VALID,0,VALID,24.8067,VALID,61,VALID,0.467578,
2010-06-15, 02:10:05,VALID,1010.01,VALID,0,VALID,101.758,VALID,0,VALID,24.7678,VALID,55,VALID,0.527344,
2010-06-15, 02:11:05,VALID,1009.98,VALID,0,VALID,101.789,VALID,0,VALID,24.7872,VALID,33,VALID,0.486719,
2010-06-15, 02:12:05,VALID,1009.98,VALID,0,VALID,101.827,VALID,0,VALID,24.7872,VALID,30,VALID,0.436719,
2010-06-15, 02:13:05,VALID,1009.97,VALID,0,VALID,101.804,VALID,0,VALID,24.7464,VALID,30,VALID,0.342969,
2010-06-15, 02:14:05,VALID,1009.99,VALID,0,VALID,101.842,VALID,0,VALID,24.7678,VALID,29,VALID,0.187109,
2010-06-15, 02:15:05,VALID,1009.99,VALID,0,VALID,101.865,VALID,0,VALID,24.7872,VALID,9,VALID,0.256641,
2010-06-15, 02:16:05,VALID,1009.99,VALID,0,VALID,101.903,VALID,0,VALID,24.7854,VALID,9,VALID,0.163672,
2010-06-15, 02:17:05,VALID,1009.99,VALID,0,VALID,101.903,VALID,0,VALID,24.8067,VALID,9,VALID,0.0359375,
2010-06-15, 02:18:05,VALID,1009.98,VALID,0,VALID,101.941,VALID,0,VALID,24.7835,VALID,9,VALID,0,
2010-06-15, 02:19:05,VALID,1009.97,VALID,0,VALID,101.964,VALID,0,VALID,24.7854,VALID,9,VALID,0,
2010-06-15, 02:20:05,VALID,1009.95,VALID,0,VALID,102.01,VALID,0,VALID,24.7445,VALID,9,VALID,0,
2010-06-15, 02:21:05,VALID,1009.94,VALID,0,VALID,102.033,VALID,0,VALID,24.7445,VALID,9,VALID,0,
2010-06-15, 02:22:05,VALID,1009.93,VALID,0,VALID,102.055,VALID,0.105969,VALID,24.7445,VALID,9,VALID,0,
2010-06-15, 02:23:05,VALID,1009.89,VALID,0,VALID,102.078,VALID,0,VALID,24.7659,VALID,9,VALID,0,
2010-06-15, 02:24:05,VALID,1009.9,VALID,0,VALID,102.124,VALID,0.105969,VALID,24.7659,VALID,9,VALID,0,
2010-06-15, 02:25:05,VALID,1009.87,VALID,0,VALID,102.155,VALID,0,VALID,24.7659,VALID,9,VALID,0,
2010-06-15, 02:26:05,VALID,1009.91,VALID,0,VALID,102.185,VALID,0,VALID,24.7659,VALID,9,VALID,0,
2010-06-15, 02:27:05,VALID,1009.9,VALID,0,VALID,102.193,VALID,0,VALID,24.7854,VALID,9,VALID,0,
2010-06-15, 02:28:05,VALID,1009.94,VALID,0,VALID,102.208,VALID,0,VALID,24.7659,VALID,9,VALID,0,
2010-06-15, 02:29:05,VALID,1009.93,VALID,0,VALID,102.231,VALID,0.105969,VALID,24.7445,VALID,9,VALID,0,
2010-06-15, 02:30:05,VALID,1009.93,VALID,0,VALID,102.231,VALID,0,VALID,24.7854,VALID,9,VALID,0,
2010-06-15, 02:31:05,VALID,1009.91,VALID,0,VALID,102.269,VALID,0,VALID,24.7854,VALID,9,VALID,0,
2010-06-15, 02:32:05,VALID,1009.92,VALID,0,VALID,102.277,VALID,0,VALID,24.764,VALID,9,VALID,0,
2010-06-15, 02:33:05,VALID,1009.91,VALID,0,VALID,102.277,VALID,0.105969,VALID,24.7854,VALID,9,VALID,0,
2010-06-15, 02:34:05,VALID,1009.9,VALID,0,VALID,102.238,VALID,0,VALID,24.7854,VALID,9,VALID,0,
2010-06-15, 02:35:05,VALID,1009.9,VALID,0,VALID,102.231,VALID,0,VALID,24.7854,VALID,9,VALID,0,
2010-06-15, 02:36:05,VALID,1009.89,VALID,0,VALID,102.2,VALID,0,VALID,24.7835,VALID,9,VALID,0,
2010-06-15, 02:37:05,VALID,1009.88,VALID,0,VALID,102.185,VALID,0,VALID,24.8049,VALID,9,VALID,0,
2010-06-15, 02:38:05,VALID,1009.88,VALID,0,VALID,102.177,VALID,0,VALID,24.7835,VALID,9,VALID,0,
2010-06-15, 02:39:05,VALID,1009.89,VALID,0,VALID,102.17,VALID,0.105969,VALID,24.7835,VALID,9,VALID,0,
2010-06-15, 02:40:05,VALID,1009.89,VALID,0,VALID,102.2,VALID,0,VALID,24.803,VALID,9,VALID,0,
2010-06-15, 02:41:05,VALID,1009.87,VALID,0,VALID,102.216,VALID,0,VALID,24.803,VALID,9,VALID,0,
2010-06-15, 02:42:05,VALID,1009.85,VALID,0,VALID,102.216,VALID,0,VALID,24.8244,VALID,9,VALID,0,
2010-06-15, 02:43:05,VALID,1009.86,VALID,0,VALID,102.216,VALID,0.105969,VALID,24.803,VALID,9,VALID,0,
2010-06-15, 02:44:05,VALID,1009.86,VALID,0,VALID,102.208,VALID,0,VALID,24.803,VALID,9,VALID,0,
2010-06-15, 02:45:05,VALID,1009.88,VALID,0,VALID,102.208,VALID,0.105969,VALID,24.803,VALID,9,VALID,0,
2010-06-15, 02:46:05,VALID,1009.87,VALID,0,VALID,102.162,VALID,0,VALID,24.7835,VALID,9,VALID,0,
2010-06-15, 02:47:05,VALID,1009.86,VALID,0,VALID,102.132,VALID,0.105969,VALID,24.7835,VALID,9,VALID,0,
2010-06-15, 02:48:05,VALID,1009.85,VALID,0,VALID,102.155,VALID,0,VALID,24.7854,VALID,9,VALID,0,
2010-06-15, 02:49:05,VALID,1009.84,VALID,0,VALID,102.132,VALID,0,VALID,24.7659,VALID,9,VALID,0,
2010-06-15, 02:50:05,VALID,1009.81,VALID,0,VALID,102.094,VALID,0,VALID,24.7872,VALID,9,VALID,0,
2010-06-15, 02:51:05,VALID,1009.82,VALID,0,VALID,102.071,VALID,0,VALID,24.7659,VALID,9,VALID,0,
2010-06-15, 02:52:05,VALID,1009.8,VALID,0,VALID,102.04,VALID,0,VALID,24.7464,VALID,9,VALID,0,
2010-06-15, 02:53:05,VALID,1009.79,VALID,0,VALID,102.002,VALID,0,VALID,24.7464,VALID,9,VALID,0,
2010-06-15, 02:54:05,VALID,1009.75,VALID,0,VALID,101.911,VALID,0,VALID,24.7659,VALID,9,VALID,0,
2010-06-15, 02:55:05,VALID,1009.75,VALID,0,VALID,101.842,VALID,0,VALID,24.7872,VALID,9,VALID,0,
2010-06-15, 02:56:05,VALID,1009.72,VALID,0,VALID,101.773,VALID,0,VALID,24.7854,VALID,9,VALID,0,
2010-06-15, 02:57:05,VALID,1009.71,VALID,0,VALID,101.712,VALID,0,VALID,24.8049,VALID,9,VALID,0,
2010-06-15, 02:58:05,VALID,1009.73,VALID,0,VALID,101.735,VALID,0,VALID,24.8457,VALID,9,VALID,0,
2010-06-15, 02:59:05,VALID,1009.72,VALID,0,VALID,101.758,VALID,0,VALID,24.8457,VALID,9,VALID,0,
2010-06-15, 03:00:05,VALID,1009.71,VALID,0,VALID,101.766,VALID,0,VALID,24.8457,VALID,9,VALID,0,
2010-06-15, 03:01:05,VALID,1009.68,VALID,0,VALID,101.811,VALID,0,VALID,24.8457,VALID,9,VALID,0,
2010-06-15, 03:02:05,VALID,1009.69,VALID,0,VALID,101.827,VALID,0,VALID,24.8244,VALID,9,VALID,0,
2010-06-15, 03:03:05,VALID,1009.67,VALID,0,VALID,101.819,VALID,0,VALID,24.8244,VALID,9,VALID,0,
2010-06-15, 03:04:05,VALID,1009.65,VALID,0,VALID,101.827,VALID,0,VALID,24.803,VALID,9,VALID,0,
2010-06-15, 03:05:05,VALID,1009.68,VALID,0,VALID,101.88,VALID,0,VALID,24.8049,VALID,9,VALID,0,
2010-06-15, 03:06:05,VALID,1009.64,VALID,0,VALID,101.949,VALID,0,VALID,24.7835,VALID,9,VALID,0,
2010-06-15, 03:07:05,VALID,1009.67,VALID,0,VALID,101.964,VALID,0,VALID,24.7445,VALID,9,VALID,0,
2010-06-15, 03:08:05,VALID,1009.66,VALID,0,VALID,102.01,VALID,0,VALID,24.7464,VALID,9,VALID,0,
2010-06-15, 03:09:05,VALID,1009.71,VALID,0,VALID,102.025,VALID,0.105969,VALID,24.7464,VALID,22,VALID,0.333594,
2010-06-15, 03:10:05,VALID,1009.69,VALID,0,VALID,102.055,VALID,0,VALID,24.7464,VALID,22,VALID,0.282031,
2010-06-15, 03:11:05,VALID,1009.71,VALID,0,VALID,102.048,VALID,0,VALID,24.7269,VALID,22,VALID,0.208594,
2010-06-15, 03:12:05,VALID,1009.72,VALID,0,VALID,102.078,VALID,0.105969,VALID,24.7055,VALID,22,VALID,0.163281,
2010-06-15, 03:13:05,VALID,1009.69,VALID,0,VALID,102.094,VALID,0,VALID,24.7055,VALID,22,VALID,0,
2010-06-15, 03:14:05,VALID,1009.72,VALID,0,VALID,102.139,VALID,0,VALID,24.725,VALID,22,VALID,0,
2010-06-15, 03:15:05,VALID,1009.73,VALID,0,VALID,102.177,VALID,0,VALID,24.7269,VALID,22,VALID,0,
2010-06-15, 03:16:05,VALID,1009.74,VALID,0,VALID,102.216,VALID,0,VALID,24.7269,VALID,22,VALID,0,
2010-06-15, 03:17:05,VALID,1009.73,VALID,0,VALID,102.216,VALID,0,VALID,24.725,VALID,22,VALID,0,
2010-06-15, 03:18:05,VALID,1009.71,VALID,0,VALID,102.231,VALID,0,VALID,24.7074,VALID,22,VALID,0,
2010-06-15, 03:19:05,VALID,1009.75,VALID,0,VALID,102.238,VALID,0,VALID,24.6879,VALID,22,VALID,0,
2010-06-15, 03:20:05,VALID,1009.76,VALID,0,VALID,102.216,VALID,0,VALID,24.7074,VALID,22,VALID,0,
2010-06-15, 03:21:05,VALID,1009.75,VALID,0,VALID,102.223,VALID,0,VALID,24.7464,VALID,22,VALID,0,
2010-06-15, 03:22:05,VALID,1009.77,VALID,0,VALID,102.231,VALID,0,VALID,24.7678,VALID,22,VALID,0,
2010-06-15, 03:23:05,VALID,1009.77,VALID,0,VALID,102.216,VALID,0,VALID,24.7678,VALID,22,VALID,0.0714844,
2010-06-15, 03:24:05,VALID,1009.74,VALID,0,VALID,102.155,VALID,0,VALID,24.7464,VALID,22,VALID,0.228516,
2010-06-15, 03:25:05,VALID,1009.75,VALID,0,VALID,102.124,VALID,0,VALID,24.7464,VALID,22,VALID,0.192969,
2010-06-15, 03:26:05,VALID,1009.75,VALID,0,VALID,102.109,VALID,0,VALID,24.7659,VALID,22,VALID,0.142188,
2010-06-15, 03:27:05,VALID,1009.76,VALID,0,VALID,102.109,VALID,0,VALID,24.7872,VALID,22,VALID,0,
2010-06-15, 03:28:05,VALID,1009.73,VALID,0,VALID,102.132,VALID,0,VALID,24.7659,VALID,22,VALID,0,
2010-06-15, 03:29:05,VALID,1009.74,VALID,0,VALID,102.155,VALID,0,VALID,24.7659,VALID,22,VALID,0,
2010-06-15, 03:30:05,VALID,1009.74,VALID,0,VALID,102.139,VALID,0,VALID,24.7464,VALID,22,VALID,0,
2010-06-15, 03:31:05,VALID,1009.76,VALID,0,VALID,102.132,VALID,0,VALID,24.7678,VALID,22,VALID,0,
2010-06-15, 03:32:05,VALID,1009.77,VALID,0,VALID,102.147,VALID,0,VALID,24.7269,VALID,22,VALID,0,
2010-06-15, 03:33:05,VALID,1009.75,VALID,0,VALID,102.162,VALID,0,VALID,24.7464,VALID,22,VALID,0.0328125,
2010-06-15, 03:34:05,VALID,1009.77,VALID,0,VALID,102.193,VALID,0,VALID,24.725,VALID,22,VALID,0,
2010-06-15, 03:35:05,VALID,1009.76,VALID,0,VALID,102.185,VALID,0.105969,VALID,24.725,VALID,22,VALID,0,
2010-06-15, 03:36:05,VALID,1009.77,VALID,0,VALID,102.2,VALID,0.105969,VALID,24.725,VALID,22,VALID,0.0265625,
2010-06-15, 03:37:05,VALID,1009.78,VALID,0,VALID,102.2,VALID,0.105969,VALID,24.7445,VALID,22,VALID,0.00429688,
2010-06-15, 03:38:05,VALID,1009.8,VALID,0,VALID,102.193,VALID,0.105969,VALID,24.725,VALID,22,VALID,0,
2010-06-15, 03:39:05,VALID,1009.78,VALID,0,VALID,102.185,VALID,0.105969,VALID,24.725,VALID,22,VALID,0,
2010-06-15, 03:40:05,VALID,1009.78,VALID,0,VALID,102.185,VALID,0.105969,VALID,24.725,VALID,22,VALID,0,
2010-06-15, 03:41:05,VALID,1009.76,VALID,0,VALID,102.185,VALID,0.105969,VALID,24.7445,VALID,22,VALID,0,
2010-06-15, 03:42:05,VALID,1009.77,VALID,0,VALID,102.162,VALID,0.105969,VALID,24.7464,VALID,22,VALID,0,
2010-06-15, 03:43:05,VALID,1009.77,VALID,0,VALID,102.185,VALID,0.105969,VALID,24.7269,VALID,22,VALID,0,
2010-06-15, 03:44:05,VALID,1009.78,VALID,0,VALID,102.177,VALID,0.105969,VALID,24.7055,VALID,22,VALID,0,
2010-06-15, 03:45:05,VALID,1009.76,VALID,0,VALID,102.147,VALID,0.105969,VALID,24.7074,VALID,22,VALID,0,
2010-06-15, 03:46:05,VALID,1009.77,VALID,0,VALID,102.162,VALID,0.105969,VALID,24.686,VALID,22,VALID,0,
2010-06-15, 03:47:05,VALID,1009.76,VALID,0,VALID,102.147,VALID,0.105969,VALID,24.7074,VALID,22,VALID,0,
2010-06-15, 03:48:05,VALID,1009.74,VALID,0,VALID,102.162,VALID,0.105969,VALID,24.6666,VALID,22,VALID,0,
2010-06-15, 03:49:05,VALID,1009.72,VALID,0,VALID,102.177,VALID,0.105969,VALID,24.6666,VALID,22,VALID,0,
2010-06-15, 03:50:05,VALID,1009.75,VALID,0,VALID,102.185,VALID,0.105969,VALID,24.6684,VALID,22,VALID,0,
2010-06-15, 03:51:05,VALID,1009.69,VALID,0,VALID,102.193,VALID,0.105969,VALID,24.6666,VALID,22,VALID,0,
2010-06-15, 03:52:04,VALID,1009.71,VALID,0,VALID,102.2,VALID,0,VALID,24.6276,VALID,22,VALID,0,
2010-06-15, 03:53:04,VALID,1009.7,VALID,0,VALID,102.223,VALID,0.105969,VALID,24.6081,VALID,22,VALID,0,